Tracking 28790 objects as of 19-Apr-2024
HD Live streaming from Space Station
objects crossing your sky now

FENGYUN 1C DEB

Track FENGYUN 1C DEB now!
10-day predictions


NORAD ID: 31878
Int'l Code: 1999-025CKD
Perigee: 591.2 km
Apogee: 752.6 km
Inclination: 99.5 °
Period: 98.0 minutes
Semi major axis: 7042 km
RCS: 0.0122 m2 (small)
Launch date: May 10, 1999
Source: People's Republic of China (PRC)
Launch site: Taiyaun Space Center, China (TSC)

Note: This is SATELLITE DEBRIS
Your satellite tracking list
Your tracking list is empty




NASA's NSSDC Master Catalog

Two Line Element Set (TLE):
1 31878U 99025CKD 24109.69743904  .00009958  00000-0  15519-2 0  9994
2 31878  99.4818 283.3952 0114584 301.0617  57.9376 14.68828711891899
Source of the keplerian elements: AFSPC